Time,TemperatureF,DewpointF,PressureIn,WindDirection,WindDirectionDegrees,WindSpeedMPH,WindSpeedGustMPH,Humidity,HourlyPrecipIn,Conditions,Clouds,dailyrainin,SoftwareType,DateUTC
2013-02-09 00:00:00,60.2,58.2,30.07,North,360,3.6,6.9,93,0.00,CLR,SKC,0.00,WeatherDisplay:10.37,2013-02-09 05:00:00,
2013-02-09 00:01:00,60.2,58.2,30.07,WNW,295,3.7,5.8,93,0.00,CLR,SKC,0.00,WeatherDisplay:10.37,2013-02-09 05:01:00,
2013-02-09 00:06:00,60.1,58.1,30.07,NW,316,2.8,4.6,93,0.00,CLR,SKC,0.00,WeatherDisplay:10.37,2013-02-09 05:06:00,
2013-02-09 00:11:00,60.0,58.0,30.07,NNE,26,3.2,8.1,93,0.00,CLR,SKC,0.00,WeatherDisplay:10.37,2013-02-09 05:11:00,
2013-02-09 00:16:00,59.9,57.9,30.07,NW,312,1.0,2.3,93,0.00,CLR,SKC,0.00,WeatherDisplay:10.37,2013-02-09 05:16:00,
2013-02-09 00:21:00,59.8,57.8,30.07,NW,316,1.2,3.5,93,0.00,CLR,SKC,0.00,WeatherDisplay:10.37,2013-02-09 05:21:00,
2013-02-09 00:26:00,59.7,57.7,30.06,WNW,287,1.3,3.5,93,0.00,CLR,SKC,0.00,WeatherDisplay:10.37,2013-02-09 05:26:00,
2013-02-09 00:31:00,59.6,57.6,30.07,NNW,342,2.0,3.5,93,0.00,CLR,SKC,0.00,WeatherDisplay:10.37,2013-02-09 05:31:00,
2013-02-09 00:36:00,59.4,57.4,30.07,NW,321,2.2,4.6,93,0.00,CLR,SKC,0.00,WeatherDisplay:10.37,2013-02-09 05:36:00,
2013-02-09 00:41:00,59.3,57.3,30.07,WNW,301,1.2,3.5,93,0.00,CLR,SKC,0.00,WeatherDisplay:10.37,2013-02-09 05:41:00,
2013-02-09 00:46:00,59.2,57.2,30.07,North,11,2.4,4.6,93,0.00,CLR,SKC,0.00,WeatherDisplay:10.37,2013-02-09 05:46:00,
2013-02-09 00:51:00,59.1,57.1,30.07,NW,307,0.1,1.1,93,0.00,CLR,SKC,0.00,WeatherDisplay:10.37,2013-02-09 05:51:00,
2013-02-09 00:56:00,59.0,57.0,30.07,NW,317,0.9,2.0,93,0.00,CLR,SKC,0.00,WeatherDisplay:10.37,2013-02-09 05:56:00,
2013-02-09 01:01:00,58.8,56.8,30.06,NNE,27,2.2,3.5,93,0.00,CLR,SKC,0.00,WeatherDisplay:10.37,2013-02-09 06:01:00,
2013-02-09 01:06:00,58.7,56.7,30.07,NNE,15,0.8,3.5,93,0.00,CLR,SKC,0.00,WeatherDisplay:10.37,2013-02-09 06:06:00,
2013-02-09 01:11:00,58.7,57.0,30.07,NNW,346,2.8,4.6,94,0.00,CLR,SKC,0.00,WeatherDisplay:10.37,2013-02-09 06:11:00,
2013-02-09 01:16:00,58.6,56.9,30.07,NNW,343,2.0,4.0,94,0.00,CLR,SKC,0.00,WeatherDisplay:10.37,2013-02-09 06:16:00,
2013-02-09 01:21:00,58.5,56.8,30.07,North,359,2.5,4.6,94,0.00,CLR,SKC,0.00,WeatherDisplay:10.37,2013-02-09 06:21:00,
2013-02-09 01:26:00,58.4,56.7,30.07,NNE,26,2.6,3.5,94,0.00,CLR,SKC,0.00,WeatherDisplay:10.37,2013-02-09 06:26:00,
2013-02-09 01:31:00,58.3,56.6,30.07,NNW,338,2.7,3.5,94,0.00,CLR,SKC,0.00,WeatherDisplay:10.37,2013-02-09 06:31:00,
2013-02-09 01:36:00,58.2,56.5,30.07,North,8,3.2,5.0,94,0.00,CLR,SKC,0.00,WeatherDisplay:10.37,2013-02-09 06:36:00,
2013-02-09 01:41:00,58.2,56.5,30.07,NNE,27,1.6,5.0,94,0.00,CLR,SKC,0.00,WeatherDisplay:10.37,2013-02-09 06:41:00,
2013-02-09 01:46:00,58.1,56.4,30.07,NNW,341,1.6,2.3,94,0.00,CLR,SKC,0.00,WeatherDisplay:10.37,2013-02-09 06:46:00,
2013-02-09 01:51:00,58.1,56.4,30.08,NE,37,2.0,6.0,94,0.00,CLR,SKC,0.00,WeatherDisplay:10.37,2013-02-09 06:51:00,
2013-02-09 01:56:00,57.9,56.2,30.07,North,4,1.8,4.6,94,0.00,CLR,SKC,0.00,WeatherDisplay:10.37,2013-02-09 06:56:00,
2013-02-09 02:01:00,57.9,56.2,30.07,NNE,33,3.2,3.5,94,0.00,CLR,SKC,0.00,WeatherDisplay:10.37,2013-02-09 07:01:00,
2013-02-09 02:06:00,57.8,56.1,30.07,North,6,1.4,2.3,94,0.00,CLR,SKC,0.00,WeatherDisplay:10.37,2013-02-09 07:06:00,
2013-02-09 02:11:00,57.7,56.0,30.06,NNE,15,1.3,3.5,94,0.00,CLR,SKC,0.00,WeatherDisplay:10.37,2013-02-09 07:11:00,
2013-02-09 02:16:00,57.5,55.8,30.06,NW,316,1.6,3.5,94,0.00,CLR,SKC,0.00,WeatherDisplay:10.37,2013-02-09 07:16:00,
2013-02-09 02:21:00,57.4,55.7,30.06,NNW,347,1.9,3.5,94,0.00,CLR,SKC,0.00,WeatherDisplay:10.37,2013-02-09 07:21:00,
2013-02-09 02:26:00,57.4,55.7,30.06,North,1,1.9,3.5,94,0.00,CLR,SKC,0.00,WeatherDisplay:10.37,2013-02-09 07:26:00,
2013-02-09 02:31:00,57.2,55.5,30.06,NNW,348,0.3,2.3,94,0.00,CLR,SKC,0.00,WeatherDisplay:10.37,2013-02-09 07:31:00,
2013-02-09 02:36:00,57.0,55.3,30.05,NE,49,2.2,3.5,94,0.00,CLR,SKC,0.00,WeatherDisplay:10.37,2013-02-09 07:36:00,
2013-02-09 02:41:00,56.9,55.2,30.06,North,1,2.3,3.5,94,0.00,CLR,SKC,0.00,WeatherDisplay:10.37,2013-02-09 07:41:00,
2013-02-09 02:46:00,56.7,55.3,30.05,NNE,32,1.0,3.5,95,0.00,CLR,SKC,0.00,WeatherDisplay:10.37,2013-02-09 07:46:00,
2013-02-09 02:51:00,56.6,55.2,30.06,North,350,0.9,2.3,95,0.00,CLR,SKC,0.00,WeatherDisplay:10.37,2013-02-09 07:51:00,
2013-02-09 02:56:00,56.5,55.1,30.05,NE,37,1.9,3.5,95,0.00,CLR,SKC,0.00,WeatherDisplay:10.37,2013-02-09 07:56:00,
2013-02-09 03:01:00,56.4,55.0,30.06,NE,41,1.0,3.5,95,0.00,CLR,SKC,0.00,WeatherDisplay:10.37,2013-02-09 08:01:00,
2013-02-09 03:06:00,56.3,54.9,30.05,ENE,58,0.5,1.1,95,0.00,CLR,SKC,0.00,WeatherDisplay:10.37,2013-02-09 08:06:00,
2013-02-09 03:11:00,56.2,54.8,30.05,ENE,58,0.0,1.1,95,0.00,CLR,SKC,0.00,WeatherDisplay:10.37,2013-02-09 08:11:00,
2013-02-09 03:16:00,56.0,54.6,30.05,ENE,57,0.2,0.0,95,0.00,CLR,SKC,0.00,WeatherDisplay:10.37,2013-02-09 08:16:00,
2013-02-09 03:21:00,55.8,54.4,30.05,ENE,57,0.0,1.1,95,0.00,CLR,SKC,0.00,WeatherDisplay:10.37,2013-02-09 08:21:00,
2013-02-09 03:26:00,55.7,54.3,30.05,NE,56,0.0,0.0,95,0.00,CLR,SKC,0.00,WeatherDisplay:10.37,2013-02-09 08:26:00,
2013-02-09 03:31:00,55.7,54.3,30.05,ENE,57,0.0,0.0,95,0.00,CLR,SKC,0.00,WeatherDisplay:10.37,2013-02-09 08:31:00,
2013-02-09 03:36:00,55.6,54.2,30.05,NE,56,0.0,0.0,95,0.00,CLR,SKC,0.00,WeatherDisplay:10.37,2013-02-09 08:36:00,
2013-02-09 03:41:00,55.4,54.0,30.05,ENE,57,0.0,0.0,95,0.00,CLR,SKC,0.00,WeatherDisplay:10.37,2013-02-09 08:41:00,
2013-02-09 03:46:00,55.3,54.2,30.05,ENE,57,0.0,1.1,96,0.00,CLR,SKC,0.00,WeatherDisplay:10.37,2013-02-09 08:46:00,
2013-02-09 03:51:00,55.1,54.0,30.06,NW,326,0.0,0.0,96,0.00,CLR,SKC,0.00,WeatherDisplay:10.37,2013-02-09 08:51:00,
2013-02-09 03:56:00,55.1,54.0,30.06,NNW,330,0.0,0.0,96,0.00,CLR,SKC,0.00,WeatherDisplay:10.37,2013-02-09 08:56:00,
2013-02-09 04:01:00,55.0,53.9,30.06,NNW,347,0.0,1.1,96,0.00,CLR,SKC,0.00,WeatherDisplay:10.37,2013-02-09 09:01:00,
2013-02-09 04:06:00,55.0,53.9,30.05,NE,50,0.3,2.0,96,0.00,CLR,SKC,0.00,WeatherDisplay:10.37,2013-02-09 09:06:00,
2013-02-09 04:11:00,55.0,53.9,30.05,NNE,26,0.8,2.3,96,0.00,CLR,SKC,0.00,WeatherDisplay:10.37,2013-02-09 09:11:00,
2013-02-09 04:16:00,55.0,53.9,30.05,North,6,0.4,1.1,96,0.00,CLR,SKC,0.00,WeatherDisplay:10.37,2013-02-09 09:16:00,
2013-02-09 04:21:00,55.0,53.9,30.06,NNW,344,0.4,3.5,96,0.00,CLR,SKC,0.00,WeatherDisplay:10.37,2013-02-09 09:21:00,
2013-02-09 04:26:00,55.1,54.0,30.06,NNE,15,0.2,0.0,96,0.00,CLR,SKC,0.00,WeatherDisplay:10.37,2013-02-09 09:26:00,
2013-02-09 04:31:00,55.0,53.9,30.06,NNE,30,0.2,2.3,96,0.00,CLR,SKC,0.00,WeatherDisplay:10.37,2013-02-09 09:31:00,
2013-02-09 04:36:00,55.0,53.9,30.06,NE,36,1.0,1.0,96,0.00,CLR,SKC,0.00,WeatherDisplay:10.37,2013-02-09 09:36:00,
2013-02-09 04:41:00,55.0,53.9,30.06,North,359,1.0,2.3,96,0.00,CLR,SKC,0.00,WeatherDisplay:10.37,2013-02-09 09:41:00,
2013-02-09 04:46:00,55.0,53.9,30.06,North,349,1.3,3.5,96,0.00,CLR,SKC,0.00,WeatherDisplay:10.37,2013-02-09 09:46:00,
2013-02-09 04:51:00,54.9,53.8,30.06,NNE,28,0.8,3.0,96,0.00,CLR,SKC,0.00,WeatherDisplay:10.37,2013-02-09 09:51:00,
2013-02-09 04:56:00,54.9,53.8,30.06,NE,34,1.2,3.5,96,0.00,CLR,SKC,0.00,WeatherDisplay:10.37,2013-02-09 09:56:00,
2013-02-09 05:01:00,54.8,53.7,30.06,NW,323,0.7,1.1,96,0.00,CLR,SKC,0.00,WeatherDisplay:10.37,2013-02-09 10:01:00,
2013-02-09 05:06:00,54.8,53.7,30.06,North,7,0.7,2.3,96,0.00,CLR,SKC,0.00,WeatherDisplay:10.37,2013-02-09 10:06:00,
2013-02-09 05:11:00,54.7,53.6,30.07,NNE,13,0.3,1.1,96,0.00,CLR,SKC,0.00,WeatherDisplay:10.37,2013-02-09 10:11:00,
2013-02-09 05:16:00,54.6,53.5,30.07,NNW,333,0.6,1.1,96,0.00,CLR,SKC,0.00,WeatherDisplay:10.37,2013-02-09 10:16:00,
2013-02-09 05:21:00,54.5,53.7,30.07,NNE,18,1.4,2.0,97,0.00,CLR,SKC,0.00,WeatherDisplay:10.37,2013-02-09 10:21:00,
2013-02-09 05:26:00,54.4,53.6,30.07,NNW,339,1.6,3.5,97,0.00,CLR,SKC,0.00,WeatherDisplay:10.37,2013-02-09 10:26:00,
2013-02-09 05:31:00,54.5,53.7,30.08,NNW,332,2.3,3.5,97,0.00,CLR,SKC,0.00,WeatherDisplay:10.37,2013-02-09 10:31:00,
2013-02-09 05:36:00,54.7,53.9,30.08,NE,46,0.9,3.0,97,0.00,CLR,SKC,0.00,WeatherDisplay:10.37,2013-02-09 10:36:00,
2013-02-09 05:41:00,54.9,54.1,30.08,North,358,2.0,3.5,97,0.00,CLR,SKC,0.00,WeatherDisplay:10.37,2013-02-09 10:41:00,
2013-02-09 05:46:00,55.1,54.3,30.08,NNE,22,0.6,3.5,97,0.00,CLR,SKC,0.00,WeatherDisplay:10.37,2013-02-09 10:46:00,
2013-02-09 05:51:00,55.2,54.4,30.08,NE,54,2.6,4.6,97,0.00,CLR,SKC,0.00,WeatherDisplay:10.37,2013-02-09 10:51:00,
2013-02-09 05:56:00,55.3,54.5,30.08,NE,40,3.0,5.0,97,0.00,CLR,SKC,0.00,WeatherDisplay:10.37,2013-02-09 10:56:00,
2013-02-09 06:01:00,55.4,54.6,30.08,ENE,63,1.1,3.5,97,0.00,OVC,SKC,0.00,WeatherDisplay:10.37,2013-02-09 11:01:00,
2013-02-09 06:06:00,55.5,54.7,30.08,NE,53,2.9,4.6,97,0.00,OVC,SKC,0.00,WeatherDisplay:10.37,2013-02-09 11:06:00,
2013-02-09 06:11:00,55.6,54.8,30.08,NE,50,1.6,3.5,97,0.00,OVC,SKC,0.00,WeatherDisplay:10.37,2013-02-09 11:11:00,
2013-02-09 06:16:00,55.8,55.0,30.08,North,1,1.8,3.5,97,0.00,OVC,SKC,0.00,WeatherDisplay:10.37,2013-02-09 11:16:00,
2013-02-09 06:21:00,56.0,56.0,30.09,NE,34,2.8,3.5,100,0.00,OVC,SKC,0.00,WeatherDisplay:10.37,2013-02-09 11:21:00,
2013-02-09 06:26:00,56.1,56.1,30.09,North,1,2.8,3.5,100,0.00,OVC,SKC,0.00,WeatherDisplay:10.37,2013-02-09 11:26:00,
2013-02-09 06:31:00,56.2,56.2,30.09,NNE,18,0.8,1.0,100,0.00,OVC,SKC,0.00,WeatherDisplay:10.37,2013-02-09 11:31:00,
2013-02-09 06:36:00,56.4,56.4,30.09,North,4,1.0,3.5,100,0.00,OVC,SKC,0.00,WeatherDisplay:10.37,2013-02-09 11:36:00,
2013-02-09 06:41:00,56.5,56.5,30.09,North,10,1.9,2.3,100,0.00,OVC,SKC,0.00,WeatherDisplay:10.37,2013-02-09 11:41:00,
2013-02-09 06:46:00,56.6,56.6,30.10,NE,46,0.8,3.5,100,0.00,OVC,SKC,0.00,WeatherDisplay:10.37,2013-02-09 11:46:00,
2013-02-09 06:51:00,56.8,56.8,30.10,North,352,3.8,4.0,100,0.00,OVC,SKC,0.00,WeatherDisplay:10.37,2013-02-09 11:51:00,
2013-02-09 06:56:00,57.0,57.0,30.10,NNE,13,2.9,4.6,100,0.00,OVC,SKC,0.00,WeatherDisplay:10.37,2013-02-09 11:56:00,
2013-02-09 07:01:00,57.2,57.2,30.10,NNE,32,2.2,6.9,100,0.00,OVC,SKC,0.00,WeatherDisplay:10.37,2013-02-09 12:01:00,
2013-02-09 07:06:00,57.2,57.2,30.11,NNE,32,3.3,7.0,100,0.00,OVC,SKC,0.00,WeatherDisplay:10.37,2013-02-09 12:06:00,
2013-02-09 07:11:00,57.1,56.3,30.11,North,9,3.2,4.0,97,0.00,OVC,SKC,0.00,WeatherDisplay:10.37,2013-02-09 12:11:00,
2013-02-09 07:16:00,57.0,56.2,30.11,NE,49,4.2,6.0,97,0.00,OVC,SKC,0.00,WeatherDisplay:10.37,2013-02-09 12:16:00,
2013-02-09 07:21:00,56.9,56.1,30.11,NNE,23,4.0,6.9,97,0.00,OVC,SKC,0.00,WeatherDisplay:10.37,2013-02-09 12:21:00,
2013-02-09 07:26:00,56.8,56.0,30.12,North,350,2.8,7.0,97,0.00,OVC,SKC,0.00,WeatherDisplay:10.37,2013-02-09 12:26:00,
2013-02-09 07:31:00,56.8,56.0,30.12,NNE,12,5.3,10.0,97,0.00,OVC,SKC,0.00,WeatherDisplay:10.37,2013-02-09 12:31:00,
2013-02-09 07:36:00,56.8,56.8,30.12,NE,42,1.8,3.5,100,0.00,OVC,SKC,0.00,WeatherDisplay:10.37,2013-02-09 12:36:00,
2013-02-09 07:41:00,56.8,56.8,30.12,NE,44,4.0,4.6,100,0.00,OVC,SKC,0.00,WeatherDisplay:10.37,2013-02-09 12:41:00,
2013-02-09 07:46:00,56.8,56.0,30.13,ENE,63,3.9,5.8,97,0.00,OVC,SKC,0.00,WeatherDisplay:10.37,2013-02-09 12:46:00,
2013-02-09 07:51:00,56.9,56.1,30.13,NE,41,2.0,3.5,97,0.00,OVC,SKC,0.00,WeatherDisplay:10.37,2013-02-09 12:51:00,
2013-02-09 07:56:00,57.0,57.0,30.13,NE,50,3.2,4.6,100,0.00,OVC,SKC,0.00,WeatherDisplay:10.37,2013-02-09 12:56:00,
2013-02-09 08:01:00,57.2,56.4,30.13,NE,50,2.6,3.5,97,0.00,OVC,SKC,0.00,WeatherDisplay:10.37,2013-02-09 13:01:00,
2013-02-09 08:06:00,57.4,56.6,30.13,North,8,0.9,2.3,97,0.00,OVC,SKC,0.00,WeatherDisplay:10.37,2013-02-09 13:06:00,
2013-02-09 08:11:00,57.5,56.7,30.14,NNE,26,4.4,8.1,97,0.00,OVC,SKC,0.00,WeatherDisplay:10.37,2013-02-09 13:11:00,
2013-02-09 08:16:00,57.5,56.7,30.14,North,356,5.1,9.2,97,0.00,OVC,SKC,0.00,WeatherDisplay:10.37,2013-02-09 13:16:00,
2013-02-09 08:21:00,57.7,56.9,30.14,North,5,3.2,8.1,97,0.00,OVC,SKC,0.00,WeatherDisplay:10.37,2013-02-09 13:21:00,
2013-02-09 08:26:00,58.0,57.2,30.14,North,356,3.9,4.6,97,0.00,OVC,SKC,0.00,WeatherDisplay:10.37,2013-02-09 13:26:00,
2013-02-09 08:31:00,58.0,56.9,30.14,NE,36,3.7,6.0,96,0.00,OVC,SKC,0.00,WeatherDisplay:10.37,2013-02-09 13:31:00,
2013-02-09 08:36:00,58.1,57.0,30.14,NE,36,3.9,8.1,96,0.00,OVC,SKC,0.00,WeatherDisplay:10.37,2013-02-09 13:36:00,
2013-02-09 08:41:00,58.2,57.1,30.15,NNW,329,3.6,5.8,96,0.00,OVC,SKC,0.00,WeatherDisplay:10.37,2013-02-09 13:41:00,
2013-02-09 08:46:00,58.8,57.4,30.15,NE,36,3.3,6.0,95,0.00,OVC,SKC,0.00,WeatherDisplay:10.37,2013-02-09 13:46:00,
2013-02-09 08:51:00,59.3,57.6,30.15,ENE,60,2.3,6.9,94,0.00,OVC,SKC,0.00,WeatherDisplay:10.37,2013-02-09 13:51:00,
2013-02-09 08:56:00,59.7,57.4,30.15,NW,304,6.9,9.2,92,0.01,RA,SKC,0.01,WeatherDisplay:10.37,2013-02-09 13:56:00,
2013-02-09 09:01:00,60.2,57.6,30.15,NE,50,3.1,4.6,91,0.01,RA,SKC,0.01,WeatherDisplay:10.37,2013-02-09 14:01:00,
2013-02-09 09:06:00,60.8,57.2,30.15,NNW,340,5.8,9.2,88,0.01,BKN,SKC,0.01,WeatherDisplay:10.37,2013-02-09 14:06:00,
2013-02-09 09:11:00,61.5,57.3,30.14,ENE,60,4.2,9.2,86,0.01,BKN,SKC,0.01,WeatherDisplay:10.37,2013-02-09 14:11:00,
2013-02-09 09:16:00,62.1,57.5,30.15,NNE,32,5.6,11.5,85,0.01,BKN,SKC,0.01,WeatherDisplay:10.37,2013-02-09 14:16:00,
2013-02-09 09:21:00,62.5,57.3,30.15,ENE,58,7.5,10.4,83,0.01,BKN,SKC,0.01,WeatherDisplay:10.37,2013-02-09 14:21:00,
2013-02-09 09:26:00,62.9,58.0,30.15,ENE,63,5.5,10.4,84,0.01,BKN,SKC,0.01,WeatherDisplay:10.37,2013-02-09 14:26:00,
2013-02-09 09:31:00,63.3,57.7,30.15,NE,41,7.4,9.2,82,0.01,BKN,SKC,0.01,WeatherDisplay:10.37,2013-02-09 14:31:00,
2013-02-09 09:36:00,63.9,58.0,30.15,NNW,331,6.7,12.0,81,0.01,BKN,SKC,0.01,WeatherDisplay:10.37,2013-02-09 14:36:00,
2013-02-09 09:41:00,64.1,58.1,30.16,ENE,65,6.2,9.0,81,0.01,BKN,SKC,0.01,WeatherDisplay:10.37,2013-02-09 14:41:00,
2013-02-09 09:46:00,64.5,58.2,30.16,NNE,33,6.0,10.4,80,0.01,BKN,SKC,0.01,WeatherDisplay:10.37,2013-02-09 14:46:00,
2013-02-09 09:51:00,64.8,58.1,30.16,NE,37,7.2,11.5,79,0.01,BKN,SKC,0.01,WeatherDisplay:10.37,2013-02-09 14:51:00,
2013-02-09 09:56:00,65.4,58.7,30.16,NNE,28,7.1,10.4,79,0.00,BKN,SKC,0.01,WeatherDisplay:10.37,2013-02-09 14:56:00,
2013-02-09 10:01:00,65.5,58.8,30.16,ENE,60,6.9,10.4,79,0.00,CLR,SKC,0.01,WeatherDisplay:10.37,2013-02-09 15:01:00,
2013-02-09 10:06:00,65.8,58.7,30.16,NE,50,10.1,12.7,78,0.00,CLR,SKC,0.01,WeatherDisplay:10.37,2013-02-09 15:06:00,
2013-02-09 10:11:00,66.2,59.1,30.16,NE,41,7.1,12.0,78,0.00,CLR,SKC,0.01,WeatherDisplay:10.37,2013-02-09 15:11:00,
2013-02-09 10:16:00,66.4,59.3,30.16,NE,41,8.5,12.7,78,0.00,CLR,SKC,0.01,WeatherDisplay:10.37,2013-02-09 15:16:00,
2013-02-09 10:21:00,66.7,59.3,30.16,North,8,9.6,13.8,77,0.00,CLR,SKC,0.01,WeatherDisplay:10.37,2013-02-09 15:21:00,
2013-02-09 10:26:00,67.0,59.5,30.16,NNE,26,7.0,11.5,77,0.00,CLR,SKC,0.01,WeatherDisplay:10.37,2013-02-09 15:26:00,
2013-02-09 10:31:00,67.4,59.9,30.16,NNE,19,7.8,15.0,77,0.00,CLR,SKC,0.01,WeatherDisplay:10.37,2013-02-09 15:31:00,
2013-02-09 10:36:00,68.1,60.2,30.16,NNE,23,6.5,12.7,76,0.00,CLR,SKC,0.01,WeatherDisplay:10.37,2013-02-09 15:36:00,
2013-02-09 10:41:00,68.4,60.5,30.16,ENE,60,4.6,10.4,76,0.00,CLR,SKC,0.01,WeatherDisplay:10.37,2013-02-09 15:41:00,
2013-02-09 10:46:00,69.0,60.7,30.16,NE,51,6.4,13.8,75,0.00,CLR,SKC,0.01,WeatherDisplay:10.37,2013-02-09 15:46:00,
2013-02-09 10:51:00,69.3,60.7,30.16,East,95,6.9,11.5,74,0.00,CLR,SKC,0.01,WeatherDisplay:10.37,2013-02-09 15:51:00,
2013-02-09 10:56:00,69.6,60.9,30.16,NE,41,4.8,6.9,74,0.00,CLR,SKC,0.01,WeatherDisplay:10.37,2013-02-09 15:56:00,
2013-02-09 11:01:00,69.9,60.8,30.16,NE,52,8.1,12.7,73,0.00,FEW,SKC,0.01,WeatherDisplay:10.37,2013-02-09 16:01:00,
2013-02-09 11:06:00,70.1,61.0,30.16,NE,50,4.0,8.1,73,0.00,FEW,SKC,0.01,WeatherDisplay:10.37,2013-02-09 16:06:00,
2013-02-09 11:11:00,70.4,60.5,30.16,ENE,63,6.1,10.4,71,0.00,FEW,SKC,0.01,WeatherDisplay:10.37,2013-02-09 16:11:00,
2013-02-09 11:16:00,70.5,60.6,30.15,ENE,75,6.4,9.2,71,0.00,FEW,SKC,0.01,WeatherDisplay:10.37,2013-02-09 16:16:00,
2013-02-09 11:21:00,71.1,61.2,30.15,NE,52,6.6,9.2,71,0.00,FEW,SKC,0.01,WeatherDisplay:10.37,2013-02-09 16:21:00,
2013-02-09 11:27:00,71.4,61.1,30.15,NE,56,8.1,11.5,70,0.00,FEW,SKC,0.01,WeatherDisplay:10.37,2013-02-09 16:27:00,
2013-02-09 11:32:00,71.8,61.5,30.15,ENE,58,5.3,8.1,70,0.00,FEW,SKC,0.01,WeatherDisplay:10.37,2013-02-09 16:32:00,
2013-02-09 11:37:00,72.3,61.6,30.15,NW,325,4.3,6.9,69,0.00,FEW,SKC,0.01,WeatherDisplay:10.37,2013-02-09 16:37:00,
2013-02-09 11:42:00,72.6,61.4,30.15,NNE,29,3.6,11.5,68,0.00,FEW,SKC,0.01,WeatherDisplay:10.37,2013-02-09 16:42:00,
2013-02-09 11:47:00,72.8,61.2,30.15,NE,56,3.3,5.8,67,0.00,FEW,SKC,0.01,WeatherDisplay:10.37,2013-02-09 16:47:00,
2013-02-09 11:52:00,72.6,61.4,30.15,East,98,5.5,9.2,68,0.00,FEW,SKC,0.01,WeatherDisplay:10.37,2013-02-09 16:52:00,
2013-02-09 11:57:00,72.8,61.6,30.15,ENE,70,4.2,5.8,68,0.00,FEW,SKC,0.01,WeatherDisplay:10.37,2013-02-09 16:57:00,
2013-02-09 12:02:00,73.2,62.0,30.15,NE,44,6.0,8.1,68,0.00,FEW,SKC,0.01,WeatherDisplay:10.37,2013-02-09 17:02:00,
2013-02-09 12:07:00,73.2,62.0,30.15,East,86,2.4,6.9,68,0.00,FEW,SKC,0.01,WeatherDisplay:10.37,2013-02-09 17:07:00,
2013-02-09 12:12:00,73.5,61.9,30.14,NE,46,5.8,9.2,67,0.00,FEW,SKC,0.01,WeatherDisplay:10.37,2013-02-09 17:12:00,
2013-02-09 12:17:00,73.3,62.1,30.14,NE,34,5.4,10.4,68,0.00,SCT,SKC,0.01,WeatherDisplay:10.37,2013-02-09 17:17:00,
2013-02-09 12:22:00,73.4,62.2,30.14,ESE,111,2.1,5.8,68,0.00,SCT,SKC,0.01,WeatherDisplay:10.37,2013-02-09 17:22:00,
2013-02-09 12:27:00,73.9,62.2,30.14,ENE,58,3.8,7.0,67,0.00,SCT,SKC,0.01,WeatherDisplay:10.37,2013-02-09 17:27:00,
2013-02-09 12:32:00,74.1,62.0,30.14,ENE,75,6.1,8.1,66,0.00,SCT,SKC,0.01,WeatherDisplay:10.37,2013-02-09 17:32:00,
2013-02-09 12:37:00,73.7,62.1,30.14,East,95,3.2,7.0,67,0.00,SCT,SKC,0.01,WeatherDisplay:10.37,2013-02-09 17:37:00,
2013-02-09 12:42:00,74.5,62.4,30.13,East,91,2.6,6.9,66,0.00,SCT,SKC,0.01,WeatherDisplay:10.37,2013-02-09 17:42:00,
2013-02-09 12:47:00,74.2,61.7,30.13,ESE,107,3.0,3.5,65,0.00,SCT,SKC,0.01,WeatherDisplay:10.37,2013-02-09 17:47:00,
2013-02-09 12:52:00,74.6,62.5,30.13,NE,41,2.6,3.5,66,0.00,SCT,SKC,0.01,WeatherDisplay:10.37,2013-02-09 17:52:00,
2013-02-09 12:57:00,74.9,62.3,30.13,ENE,61,0.7,5.0,65,0.00,SCT,SKC,0.01,WeatherDisplay:10.37,2013-02-09 17:57:00,
2013-02-09 13:02:00,74.7,61.7,30.13,NNE,25,2.5,4.6,64,0.00,SCT,SKC,0.01,WeatherDisplay:10.37,2013-02-09 18:02:00,
2013-02-09 13:07:00,75.4,62.4,30.12,NE,48,3.0,4.6,64,0.00,SCT,SKC,0.01,WeatherDisplay:10.37,2013-02-09 18:07:00,
2013-02-09 13:12:00,75.8,61.8,30.12,NE,34,5.0,10.4,62,0.00,SCT,SKC,0.01,WeatherDisplay:10.37,2013-02-09 18:12:00,
2013-02-09 13:17:00,75.0,61.5,30.12,NE,51,4.2,5.8,63,0.00,SCT,SKC,0.01,WeatherDisplay:10.37,2013-02-09 18:17:00,
2013-02-09 13:22:00,75.6,61.7,30.11,NE,41,3.3,5.0,62,0.00,SCT,SKC,0.01,WeatherDisplay:10.37,2013-02-09 18:22:00,
2013-02-09 13:27:00,76.2,61.8,30.11,NNE,30,1.6,4.6,61,0.00,SCT,SKC,0.01,WeatherDisplay:10.37,2013-02-09 18:27:00,
2013-02-09 13:32:00,75.9,61.5,30.11,NNE,30,3.7,5.8,61,0.00,SCT,SKC,0.01,WeatherDisplay:10.37,2013-02-09 18:32:00,
2013-02-09 13:37:00,76.0,61.1,30.11,East,88,4.9,8.1,60,0.00,SCT,SKC,0.01,WeatherDisplay:10.37,2013-02-09 18:37:00,
2013-02-09 13:42:00,77.0,61.6,30.11,ENE,74,4.3,6.9,59,0.00,SCT,SKC,0.01,WeatherDisplay:10.37,2013-02-09 18:42:00,
2013-02-09 13:47:00,76.9,61.5,30.10,NNE,20,5.1,8.1,59,0.00,SCT,SKC,0.01,WeatherDisplay:10.37,2013-02-09 18:47:00,
2013-02-09 13:52:00,77.6,61.7,30.10,ENE,70,3.9,6.9,58,0.00,SCT,SKC,0.01,WeatherDisplay:10.37,2013-02-09 18:52:00,
2013-02-09 13:57:00,78.2,61.7,30.10,NE,47,2.9,4.0,57,0.00,SCT,SKC,0.01,WeatherDisplay:10.37,2013-02-09 18:57:00,
2013-02-09 14:02:00,78.2,61.7,30.10,East,98,3.9,7.0,57,0.00,SCT,SKC,0.01,WeatherDisplay:10.37,2013-02-09 19:02:00,
2013-02-09 14:07:00,78.3,61.3,30.10,ENE,75,5.0,8.1,56,0.00,SCT,SKC,0.01,WeatherDisplay:10.37,2013-02-09 19:07:00,
2013-02-09 14:12:00,78.0,60.5,30.10,NE,54,2.4,4.6,55,0.00,SCT,SKC,0.01,WeatherDisplay:10.37,2013-02-09 19:12:00,
2013-02-09 14:17:00,78.1,60.1,30.10,East,89,4.0,6.0,54,0.00,SCT,SKC,0.01,WeatherDisplay:10.37,2013-02-09 19:17:00,
2013-02-09 14:22:00,78.3,59.2,30.10,East,96,3.6,6.9,52,0.00,SCT,SKC,0.01,WeatherDisplay:10.37,2013-02-09 19:22:00,
2013-02-09 14:27:00,78.8,59.7,30.10,East,84,3.8,5.0,52,0.00,SCT,SKC,0.01,WeatherDisplay:10.37,2013-02-09 19:27:00,
2013-02-09 14:32:00,78.8,60.7,30.10,SE,145,1.7,3.5,54,0.00,SCT,SKC,0.01,WeatherDisplay:10.37,2013-02-09 19:32:00,
2013-02-09 14:37:00,78.9,60.3,30.09,SE,131,3.4,6.9,53,0.00,SCT,SKC,0.01,WeatherDisplay:10.37,2013-02-09 19:37:00,
2013-02-09 14:42:00,79.3,60.1,30.10,ESE,110,3.2,6.9,52,0.00,SCT,SKC,0.01,WeatherDisplay:10.37,2013-02-09 19:42:00,
2013-02-09 14:47:00,79.2,60.1,30.09,NE,56,1.1,3.5,52,0.00,SCT,SKC,0.01,WeatherDisplay:10.37,2013-02-09 19:47:00,
2013-02-09 14:52:00,79.2,60.6,30.09,ENE,68,2.0,3.5,53,0.00,SCT,SKC,0.01,WeatherDisplay:10.37,2013-02-09 19:52:00,
2013-02-09 14:57:00,78.9,59.8,30.09,East,100,4.5,7.0,52,0.00,SCT,SKC,0.01,WeatherDisplay:10.37,2013-02-09 19:57:00,
2013-02-09 15:02:00,78.6,60.0,30.09,NE,52,1.4,2.3,53,0.00,SCT,SKC,0.01,WeatherDisplay:10.37,2013-02-09 20:02:00,
2013-02-09 15:07:00,78.8,59.1,30.09,ESE,115,4.1,6.0,51,0.00,SCT,SKC,0.01,WeatherDisplay:10.37,2013-02-09 20:07:00,
2013-02-09 15:12:00,79.2,59.0,30.09,ESE,106,3.7,4.6,50,0.00,SCT,SKC,0.01,WeatherDisplay:10.37,2013-02-09 20:12:00,
2013-02-09 15:17:00,79.6,59.9,30.09,SSE,155,2.5,5.8,51,0.00,CLR,SKC,0.01,WeatherDisplay:10.37,2013-02-09 20:17:00,
2013-02-09 15:22:00,79.6,58.8,30.09,East,95,1.9,3.5,49,0.00,CLR,SKC,0.01,WeatherDisplay:10.37,2013-02-09 20:22:00,
2013-02-09 15:27:00,79.8,58.4,30.09,SE,138,4.1,9.2,48,0.00,CLR,SKC,0.01,WeatherDisplay:10.37,2013-02-09 20:27:00,
2013-02-09 15:32:00,79.8,58.4,30.09,East,82,2.7,3.5,48,0.00,CLR,SKC,0.01,WeatherDisplay:10.37,2013-02-09 20:32:00,
2013-02-09 15:37:00,79.7,58.3,30.09,SSE,153,2.7,6.9,48,0.00,CLR,SKC,0.01,WeatherDisplay:10.37,2013-02-09 20:37:00,
2013-02-09 15:42:00,80.1,58.0,30.08,ENE,63,2.7,3.5,47,0.00,CLR,SKC,0.01,WeatherDisplay:10.37,2013-02-09 20:42:00,
2013-02-09 15:47:00,80.1,58.6,30.08,ESE,120,5.1,5.8,48,0.00,CLR,SKC,0.01,WeatherDisplay:10.37,2013-02-09 20:47:00,
2013-02-09 15:52:00,79.9,57.9,30.08,SE,146,3.8,5.8,47,0.00,CLR,SKC,0.01,WeatherDisplay:10.37,2013-02-09 20:52:00,
2013-02-09 15:57:00,80.4,58.3,30.08,ESE,107,2.9,3.5,47,0.00,CLR,SKC,0.01,WeatherDisplay:10.37,2013-02-09 20:57:00,
2013-02-09 16:02:00,80.2,58.7,30.08,North,11,4.6,6.0,48,0.00,CLR,SKC,0.01,WeatherDisplay:10.37,2013-02-09 21:02:00,
2013-02-09 16:07:00,79.7,58.8,30.08,NE,56,2.1,4.6,49,0.00,CLR,SKC,0.01,WeatherDisplay:10.37,2013-02-09 21:07:00,
2013-02-09 16:12:00,79.0,58.8,30.08,ENE,64,1.2,2.3,50,0.00,CLR,SKC,0.01,WeatherDisplay:10.37,2013-02-09 21:12:00,
2013-02-09 16:17:00,78.5,58.3,30.08,ESE,105,1.1,2.3,50,0.00,SCT,SKC,0.01,WeatherDisplay:10.37,2013-02-09 21:17:00,
2013-02-09 16:22:00,78.3,58.1,30.08,East,98,3.0,4.6,50,0.00,SCT,SKC,0.01,WeatherDisplay:10.37,2013-02-09 21:22:00,
2013-02-09 16:27:00,78.7,58.5,30.08,ESE,117,2.7,5.0,50,0.00,SCT,SKC,0.01,WeatherDisplay:10.37,2013-02-09 21:27:00,
2013-02-09 16:32:00,79.2,59.5,30.08,ESE,111,1.4,3.5,51,0.00,SCT,SKC,0.01,WeatherDisplay:10.37,2013-02-09 21:32:00,
2013-02-09 16:37:00,79.2,59.0,30.09,SE,143,1.5,3.5,50,0.00,SCT,SKC,0.01,WeatherDisplay:10.37,2013-02-09 21:37:00,
2013-02-09 16:42:00,79.5,59.8,30.08,SE,139,1.0,6.0,51,0.00,SCT,SKC,0.01,WeatherDisplay:10.37,2013-02-09 21:42:00,
2013-02-09 16:47:00,79.2,59.5,30.09,East,83,3.0,5.8,51,0.00,SCT,SKC,0.01,WeatherDisplay:10.37,2013-02-09 21:47:00,
2013-02-09 16:52:00,79.1,60.0,30.09,East,98,4.5,8.0,52,0.00,SCT,SKC,0.01,WeatherDisplay:10.37,2013-02-09 21:52:00,
2013-02-09 16:57:00,78.8,59.7,30.09,East,101,3.2,6.9,52,0.00,SCT,SKC,0.01,WeatherDisplay:10.37,2013-02-09 21:57:00,
2013-02-09 17:02:00,78.7,59.0,30.09,ENE,65,3.1,4.0,51,0.00,SCT,SKC,0.01,WeatherDisplay:10.37,2013-02-09 22:02:00,
2013-02-09 17:07:00,78.6,59.5,30.09,East,101,1.1,3.5,52,0.00,SCT,SKC,0.01,WeatherDisplay:10.37,2013-02-09 22:07:00,
2013-02-09 17:12:00,78.6,59.5,30.09,SE,127,2.9,6.0,52,0.00,SCT,SKC,0.01,WeatherDisplay:10.37,2013-02-09 22:12:00,
2013-02-09 17:17:00,78.3,59.2,30.09,ENE,68,4.8,8.1,52,0.00,FEW,SKC,0.01,WeatherDisplay:10.37,2013-02-09 22:17:00,
2013-02-09 17:22:00,77.9,59.9,30.09,East,85,2.4,3.5,54,0.00,FEW,SKC,0.01,WeatherDisplay:10.37,2013-02-09 22:22:00,
2013-02-09 17:27:00,77.8,59.8,30.09,East,83,3.5,3.5,54,0.00,FEW,SKC,0.01,WeatherDisplay:10.37,2013-02-09 22:27:00,
2013-02-09 17:32:00,77.6,59.6,30.09,NNE,32,0.8,3.5,54,0.00,FEW,SKC,0.01,WeatherDisplay:10.37,2013-02-09 22:32:00,
2013-02-09 17:37:00,77.4,60.0,30.09,NE,44,1.5,3.5,55,0.00,FEW,SKC,0.01,WeatherDisplay:10.37,2013-02-09 22:37:00,
2013-02-09 17:42:00,77.2,59.8,30.09,East,90,2.4,3.5,55,0.00,FEW,SKC,0.01,WeatherDisplay:10.37,2013-02-09 22:42:00,
2013-02-09 17:47:00,76.8,59.4,30.09,ESE,109,2.9,3.5,55,0.00,FEW,SKC,0.01,WeatherDisplay:10.37,2013-02-09 22:47:00,
2013-02-09 17:52:00,76.4,59.5,30.10,East,82,2.6,4.6,56,0.00,FEW,SKC,0.01,WeatherDisplay:10.37,2013-02-09 22:52:00,
2013-02-09 17:57:00,75.9,60.1,30.10,ESE,103,0.7,2.3,58,0.00,FEW,SKC,0.01,WeatherDisplay:10.37,2013-02-09 22:57:00,
2013-02-09 18:02:00,75.5,60.2,30.10,ESE,107,1.0,2.3,59,0.00,FEW,SKC,0.01,WeatherDisplay:10.37,2013-02-09 23:02:00,
2013-02-09 18:07:00,75.1,59.8,30.10,East,89,1.9,3.5,59,0.00,FEW,SKC,0.01,WeatherDisplay:10.37,2013-02-09 23:07:00,
2013-02-09 18:12:00,74.9,59.6,30.10,ESE,107,0.9,2.3,59,0.00,FEW,SKC,0.01,WeatherDisplay:10.37,2013-02-09 23:12:00,
2013-02-09 18:17:00,74.7,59.4,30.10,East,101,0.8,2.3,59,0.00,CLR,SKC,0.01,WeatherDisplay:10.37,2013-02-09 23:17:00,
2013-02-09 18:22:00,74.5,59.2,30.10,East,98,1.2,3.5,59,0.00,CLR,SKC,0.01,WeatherDisplay:10.37,2013-02-09 23:22:00,
2013-02-09 18:27:00,74.2,59.4,30.10,ENE,77,1.9,3.5,60,0.00,CLR,SKC,0.01,WeatherDisplay:10.37,2013-02-09 23:27:00,
2013-02-09 18:32:00,73.9,59.6,30.10,ENE,77,1.0,2.0,61,0.00,CLR,SKC,0.01,WeatherDisplay:10.37,2013-02-09 23:32:00,
2013-02-09 18:37:00,73.6,59.8,30.10,ESE,110,0.7,1.1,62,0.00,CLR,SKC,0.01,WeatherDisplay:10.37,2013-02-09 23:37:00,
2013-02-09 18:42:00,73.1,59.8,30.10,East,94,2.1,2.3,63,0.00,CLR,SKC,0.01,WeatherDisplay:10.37,2013-02-09 23:42:00,
2013-02-09 18:47:00,73.0,60.1,30.10,East,89,2.7,3.5,64,0.00,CLR,SKC,0.01,WeatherDisplay:10.37,2013-02-09 23:47:00,
2013-02-09 18:52:00,72.8,59.9,30.11,ENE,70,2.6,4.6,64,0.00,CLR,SKC,0.01,WeatherDisplay:10.37,2013-02-09 23:52:00,
2013-02-09 18:57:00,72.6,60.2,30.11,East,95,2.3,5.8,65,0.00,CLR,SKC,0.01,WeatherDisplay:10.37,2013-02-09 23:57:00,
2013-02-09 19:02:00,72.4,60.0,30.11,East,95,3.6,4.6,65,0.00,CLR,SKC,0.01,WeatherDisplay:10.37,2013-02-10 00:02:00,
2013-02-09 19:07:00,72.2,60.2,30.11,ESE,103,1.2,2.3,66,0.00,CLR,SKC,0.01,WeatherDisplay:10.37,2013-02-10 00:07:00,
2013-02-09 19:12:00,71.8,60.2,30.11,SE,136,1.5,2.3,67,0.00,CLR,SKC,0.01,WeatherDisplay:10.37,2013-02-10 00:12:00,
2013-02-09 19:17:00,71.7,59.7,30.11,East,89,3.4,5.8,66,0.00,CLR,SKC,0.01,WeatherDisplay:10.37,2013-02-10 00:17:00,
2013-02-09 19:22:00,71.6,59.6,30.11,ENE,65,1.4,2.3,66,0.00,CLR,SKC,0.01,WeatherDisplay:10.37,2013-02-10 00:22:00,
2013-02-09 19:27:00,71.4,59.9,30.12,ESE,120,1.1,3.5,67,0.00,CLR,SKC,0.01,WeatherDisplay:10.37,2013-02-10 00:27:00,
2013-02-09 19:32:00,71.3,59.8,30.12,East,96,0.7,4.6,67,0.00,CLR,SKC,0.01,WeatherDisplay:10.37,2013-02-10 00:32:00,
2013-02-09 19:37:00,71.2,59.7,30.12,ENE,66,3.3,4.6,67,0.00,CLR,SKC,0.01,WeatherDisplay:10.37,2013-02-10 00:37:00,
2013-02-09 19:42:00,71.1,59.6,30.12,East,80,3.3,6.9,67,0.00,CLR,SKC,0.01,WeatherDisplay:10.37,2013-02-10 00:42:00,
2013-02-09 19:47:00,70.9,59.4,30.12,ENE,71,1.2,2.3,67,0.00,CLR,SKC,0.01,WeatherDisplay:10.37,2013-02-10 00:47:00,
2013-02-09 19:52:00,70.6,59.5,30.12,ENE,64,1.4,2.3,68,0.00,CLR,SKC,0.01,WeatherDisplay:10.37,2013-02-10 00:52:00,
2013-02-09 19:57:00,70.5,59.8,30.13,East,86,3.5,5.8,69,0.00,CLR,SKC,0.01,WeatherDisplay:10.37,2013-02-10 00:57:00,
2013-02-09 20:02:00,70.4,59.7,30.13,East,81,4.6,6.9,69,0.00,CLR,SKC,0.01,WeatherDisplay:10.37,2013-02-10 01:02:00,
2013-02-09 20:07:00,70.6,59.9,30.13,ENE,72,3.9,5.8,69,0.00,CLR,SKC,0.01,WeatherDisplay:10.37,2013-02-10 01:07:00,
2013-02-09 20:12:00,70.8,60.1,30.13,ESE,113,2.9,8.1,69,0.00,CLR,SKC,0.01,WeatherDisplay:10.37,2013-02-10 01:12:00,
2013-02-09 20:17:00,70.8,60.5,30.13,ESE,115,4.1,6.9,70,0.00,BKN,SKC,0.01,WeatherDisplay:10.37,2013-02-10 01:17:00,
2013-02-09 20:22:00,70.9,60.6,30.14,East,83,3.4,6.9,70,0.00,BKN,SKC,0.01,WeatherDisplay:10.37,2013-02-10 01:22:00,
2013-02-09 20:27:00,70.8,60.5,30.14,East,82,4.0,6.9,70,0.00,BKN,SKC,0.01,WeatherDisplay:10.37,2013-02-10 01:27:00,
2013-02-09 20:32:00,70.6,60.3,30.14,ENE,71,2.4,4.6,70,0.00,BKN,SKC,0.01,WeatherDisplay:10.37,2013-02-10 01:32:00,
2013-02-09 20:38:00,70.4,60.5,30.14,ESE,115,5.6,9.2,71,0.00,BKN,SKC,0.01,WeatherDisplay:10.37,2013-02-10 01:38:00,
2013-02-09 20:43:00,70.4,60.9,30.14,ESE,103,4.0,5.8,72,0.00,BKN,SKC,0.01,WeatherDisplay:10.37,2013-02-10 01:43:00,
2013-02-09 20:48:00,70.3,61.2,30.14,East,91,3.0,5.0,73,0.00,BKN,SKC,0.01,WeatherDisplay:10.37,2013-02-10 01:48:00,
2013-02-09 20:53:00,70.2,61.1,30.15,NE,41,3.5,5.8,73,0.00,BKN,SKC,0.01,WeatherDisplay:10.37,2013-02-10 01:53:00,
2013-02-09 20:58:00,70.1,61.4,30.15,ENE,67,3.9,7.0,74,0.00,BKN,SKC,0.01,WeatherDisplay:10.37,2013-02-10 01:58:00,
2013-02-09 21:03:00,69.9,61.2,30.15,East,79,5.2,8.1,74,0.00,BKN,SKC,0.01,WeatherDisplay:10.37,2013-02-10 02:03:00,
2013-02-09 21:08:00,69.7,61.4,30.15,NE,55,4.5,5.8,75,0.00,BKN,SKC,0.01,WeatherDisplay:10.37,2013-02-10 02:08:00,
2013-02-09 21:13:00,69.6,61.3,30.15,ESE,113,4.5,5.8,75,0.00,BKN,SKC,0.01,WeatherDisplay:10.37,2013-02-10 02:13:00,
2013-02-09 21:18:00,69.4,61.5,30.15,East,85,4.0,5.0,76,0.00,SCT,SKC,0.01,WeatherDisplay:10.37,2013-02-10 02:18:00,
2013-02-09 21:23:00,69.2,61.3,30.15,NE,46,5.1,8.1,76,0.00,SCT,SKC,0.01,WeatherDisplay:10.37,2013-02-10 02:23:00,
2013-02-09 21:28:00,69.0,61.1,30.15,NE,43,5.9,10.4,76,0.00,SCT,SKC,0.01,WeatherDisplay:10.37,2013-02-10 02:28:00,
2013-02-09 21:33:00,69.0,61.5,30.15,East,79,4.4,9.2,77,0.00,SCT,SKC,0.01,WeatherDisplay:10.37,2013-02-10 02:33:00,
2013-02-09 21:38:00,68.9,61.4,30.15,East,97,3.7,8.1,77,0.00,SCT,SKC,0.01,WeatherDisplay:10.37,2013-02-10 02:38:00,
2013-02-09 21:43:00,68.8,61.3,30.16,NE,40,2.8,4.6,77,0.00,SCT,SKC,0.01,WeatherDisplay:10.37,2013-02-10 02:43:00,
2013-02-09 21:48:00,68.7,61.2,30.16,NNE,12,1.3,4.6,77,0.00,SCT,SKC,0.01,WeatherDisplay:10.37,2013-02-10 02:48:00,
2013-02-09 21:53:00,68.6,61.1,30.16,NE,53,1.6,3.5,77,0.00,SCT,SKC,0.01,WeatherDisplay:10.37,2013-02-10 02:53:00,
2013-02-09 21:58:00,68.6,61.1,30.16,ENE,68,2.8,7.0,77,0.00,SCT,SKC,0.01,WeatherDisplay:10.37,2013-02-10 02:58:00,
2013-02-09 22:03:00,68.5,61.0,30.16,East,84,3.1,8.1,77,0.00,BKN,SKC,0.01,WeatherDisplay:10.37,2013-02-10 03:03:00,
2013-02-09 22:08:00,68.4,60.9,30.16,ENE,72,4.6,5.0,77,0.00,BKN,SKC,0.01,WeatherDisplay:10.37,2013-02-10 03:08:00,
2013-02-09 22:13:00,68.4,61.3,30.16,NE,53,1.7,4.6,78,0.00,BKN,SKC,0.01,WeatherDisplay:10.37,2013-02-10 03:13:00,
2013-02-09 22:18:00,68.2,61.1,30.16,NE,53,2.6,3.5,78,0.00,BKN,SKC,0.01,WeatherDisplay:10.37,2013-02-10 03:18:00,
2013-02-09 22:23:00,68.0,60.9,30.16,NE,41,2.8,3.5,78,0.00,BKN,SKC,0.01,WeatherDisplay:10.37,2013-02-10 03:23:00,
2013-02-09 22:28:00,67.9,60.8,30.16,NE,53,3.5,6.9,78,0.00,BKN,SKC,0.01,WeatherDisplay:10.37,2013-02-10 03:28:00,
2013-02-09 22:33:00,67.6,60.9,30.16,ENE,75,1.4,3.5,79,0.00,BKN,SKC,0.01,WeatherDisplay:10.37,2013-02-10 03:33:00,
2013-02-09 22:38:00,67.4,60.7,30.16,NE,54,3.6,6.0,79,0.00,BKN,SKC,0.01,WeatherDisplay:10.37,2013-02-10 03:38:00,
2013-02-09 22:43:00,67.3,60.6,30.16,ENE,63,1.9,3.5,79,0.00,BKN,SKC,0.01,WeatherDisplay:10.37,2013-02-10 03:43:00,
2013-02-09 22:48:00,67.1,60.7,30.16,ENE,77,2.3,3.5,80,0.00,BKN,SKC,0.01,WeatherDisplay:10.37,2013-02-10 03:48:00,
2013-02-09 22:53:00,67.0,60.6,30.16,ENE,58,2.8,4.6,80,0.00,BKN,SKC,0.01,WeatherDisplay:10.37,2013-02-10 03:53:00,
2013-02-09 22:58:00,66.8,60.4,30.16,East,82,1.6,3.5,80,0.00,BKN,SKC,0.01,WeatherDisplay:10.37,2013-02-10 03:58:00,
2013-02-09 23:03:00,66.5,60.5,30.16,NE,50,2.1,3.5,81,0.00,SCT,SKC,0.01,WeatherDisplay:10.37,2013-02-10 04:03:00,
2013-02-09 23:08:00,66.3,60.3,30.16,NE,50,0.5,1.1,81,0.00,SCT,SKC,0.01,WeatherDisplay:10.37,2013-02-10 04:08:00,
2013-02-09 23:13:00,66.2,60.2,30.17,East,91,0.0,1.1,81,0.00,SCT,SKC,0.01,WeatherDisplay:10.37,2013-02-10 04:13:00,
2013-02-09 23:18:00,65.9,60.2,30.16,ENE,62,1.0,3.5,82,0.00,SCT,SKC,0.01,WeatherDisplay:10.37,2013-02-10 04:18:00,
2013-02-09 23:23:00,65.7,60.1,30.17,East,86,1.6,3.5,82,0.00,SCT,SKC,0.01,WeatherDisplay:10.37,2013-02-10 04:23:00,
2013-02-09 23:28:00,65.5,60.2,30.17,East,99,0.5,1.1,83,0.00,SCT,SKC,0.01,WeatherDisplay:10.37,2013-02-10 04:28:00,
2013-02-09 23:33:00,65.4,60.1,30.17,ENE,68,0.0,1.1,83,0.00,SCT,SKC,0.01,WeatherDisplay:10.37,2013-02-10 04:33:00,
2013-02-09 23:38:00,65.3,60.0,30.17,NE,41,0.0,0.0,83,0.00,SCT,SKC,0.01,WeatherDisplay:10.37,2013-02-10 04:38:00,
2013-02-09 23:43:00,65.2,59.9,30.17,ENE,70,0.4,1.1,83,0.00,SCT,SKC,0.01,WeatherDisplay:10.37,2013-02-10 04:43:00,
2013-02-09 23:48:00,65.0,60.0,30.17,ENE,65,0.9,1.1,84,0.00,SCT,SKC,0.01,WeatherDisplay:10.37,2013-02-10 04:48:00,
2013-02-09 23:53:00,64.8,59.9,30.16,NE,43,1.3,2.3,84,0.00,SCT,SKC,0.01,WeatherDisplay:10.37,2013-02-10 04:53:00,
2013-02-09 23:58:00,64.6,59.7,30.17,ENE,57,0.1,1.1,84,0.00,SCT,SKC,0.01,WeatherDisplay:10.37,2013-02-10 04:58:00,